Location: Ergnies
(50.0854°N, 2.0375°E)
Time: 15:44:55
(UTC+00:00)

AQUARIUS - Pass Details

Date: 14 January 2026
Orbit: 633 x 636 km, 98.0° (Epoch: 17 February)

Event Time Altitude Azimuth Distance (km) Brightness Sun altitude
Rises 06:35:01 0° 15° (NNE) 2,947 7.5 -10.9°
Reaches altitude 10° 06:37:14 10° 18° (NNE) 2,033 6.7 -10.6°
Maximum altitude 06:41:39 71° 102° (ESE) 677 4.5 -9.9°
Drops below altitude 10° 06:46:02 10° 187° (S) 2,015 6.9 -9.3°
Sets 06:48:14 0° 190° (S) 2,918 7.7 -9.0°
